Location: Asheville, NC
(35.6000°N, 82.5500°W)
Time: 16:53:04
(UTC-05:00)

Hubble Space Telescope - Pass Details

Date: 06 January 2018
Orbit: 537 x 541 km, 28.5° (Epoch: 23 January)

Event Time Altitude Azimuth Distance (km) Brightness Sun altitude
Exits shadow 06:23:30 15° 236° (SW) 1,517 2.7 -15.3°
Maximum altitude 06:26:19 30° 181° (S) 971 2.2 -14.7°
Drops below altitude 10° 06:29:57 10° 119° (ESE) 1,781 4.8 -14.0°
Sets 06:32:24 0° 108° (ESE) 2,671 6.4 -13.6°
